Reflectivity
-20 -20 -20 -20 -20 -20 -20 -20 -20 -20 -20 -20 -20 -20 -20 -20 -20 -20 -20 -20 -20 -20
-20 -20 -20 -20 -20 -20 -20 -20 -20 -20 -20 -20 -20 -20 -20 -20 -20 -20 -20 -20 -20 -20
-20 -20 -20 -20 -20 -20 -20 -20 -20 -20 -20 -20 -20 -20 -20 -20 -20 -20 -20 -20 -20 -20
-20 -20 -20 -20 -20 -20 -20 -20 -20 -20 -20 -20 -20 -20 -20 -20 -20 -20 -20 -20 -20 -20
-20 -20 -20 -20 -20 -20 -20 -20 -20 -20 -20 -20 -20 -20 -20 -20 -20 -20 -20 -20 -20 -20
-20 -20 -20 -20 -20 -20 -20 -20 -20 -20 -20 -20 -20 -20 -20 -20 -20 -20 -20 -20 -20 -20
-20 -20 -20 -20 -20 -20 -20 -20 -20 -20 -20 -20 -20 -20 -20 -20 -20 -20 -20 -20 -20 -20
-20 -20 -20 -20 -20 -20 -20 -20 -20 -20 -20 -20 -20 -20 -20 -20 -20 -20 -20 -20 -20 -20
-20 -20 -20 -20 -20 -20 -20 -20 -20 -20 -20 -20 -20 -20 -20 -20 -20 -20 -20 -20 -20 -20
-20 -20 -20 -20 -20 -20 -20 -20 -20 -20 -20 -20 -20 -20 -20 -20 -20 -20 -20 -20 -20 -20
-20 -20 -20 -20 -20 -20 -20 -20 -20 -20 -20 -20 -20 -20 -20 -20 -20 -20 -20 -20 -20 -20
-20 -20 -20 -20 -20 -20 -20 -20 -20 -20 -20 -20 -20 -20 -20 -20 -20 -20 -20 -20 -20 -20
-20 -20 -20 -20 -20 -20 -20 -20 -20 -20 -20 -20 -20 -20 -20 -20 -20 -20 -20 -20 -20 -20
-20 -20 -20 -20 -20 -20 -20 -20 -20 -20 -20 -20 -20 -20 -20 -20 -20 -20 -20 -20 -20 -20
Wind_Speed
7 5 5 6 5 4 4 4 6 6 6 6 6 6 6 5 6 7 5 7 6 3
6 6 6 7 5 3 4 3 4 4 4 5 6 6 6 5 8 6 6 5 6 4
6 6 6 6 5 4 3 3 4 5 6 7 7 7 6 5 5 6 5 6 6 5
5 6 6 5 4 4 4 5 6 6 6 6 6 6 6 5 6 7 7 7 8 9
5 6 5 5 4 5 6 5 5 6 5 6 6 5 6 5 6 8 9 9 9 10
5 5 5 4 4 4 4 5 6 5 5 5 5 5 6 5 6 7 6 7 9 10
5 5 4 4 3 4 5 5 5 5 5 5 6 5 5 5 6 7 8 8 8 8
5 5 5 3 4 5 5 4 5 5 5 5 5 4 5 5 5 6 8 10 11 10
5 5 5 3 5 5 4 4 4 4 4 4 4 7 4 5 5 6 8 9 10 9
6 6 5 5 4 2 2 2 3 4 3 4 6 3 7 7 4 5 6 8 9 10
6 6 6 5 4 2 2 2 3 3 3 4 4 2 6 7 6 6 6 8 11 12
7 6 6 4 4 3 1 2 2 2 6 6 2 1 9 7 5 6 8 11 10 12
7 6 5 6 4 2 0 1 3 5 5 6 4 6 8 7 3 6 8 11 12 16
7 6 6 5 2 1 3 5 5 5 4 4 4 5 8 8 5 7 11 12 12 10
Wind_Direction
62 68 65 61 54 38 30 30 22 15 19 33 32 23 37 18 20 3 355 358 351 330
82 79 82 70 63 49 34 27 30 25 23 33 36 23 42 29 17 357 347 340 340 335
92 85 85 80 85 59 34 26 37 32 25 32 24 26 48 31 9 354 338 346 337 330
80 90 88 83 72 60 35 24 37 30 29 25 14 42 53 25 11 356 346 339 343 330
97 85 82 69 56 56 31 20 40 30 32 23 19 62 47 26 2 352 343 333 332 325
106 96 91 78 54 56 39 33 26 25 22 15 18 57 34 18 351 343 324 318 320 318
117 121 109 89 57 52 37 41 19 14 12 360 64 57 25 7 344 334 333 322 321 348
146 129 103 80 64 55 36 21 13 15 358 4 100 51 33 351 331 336 348 349 349 349
145 129 115 85 76 51 14 351 5 350 347 358 93 88 28 357 2 358 348 340 334 325
160 141 142 124 102 65 331 324 327 320 355 13 106 87 20 13 4 340 322 327 321 325
165 168 173 162 151 201 258 280 307 331 344 45 128 64 25 10 348 330 326 335 332 323
167 173 167 162 184 233 229 312 322 346 29 64 159 16 22 14 339 334 337 334 327 327
160 166 161 155 165 201 211 333 27 47 44 33 21 359 356 22 357 338 335 336 334 327
152 158 157 145 133 131 48 58 41 28 2 351 331 340 1 36 1 342 340 337 332 319